This is the latest recevied weather packets stored in our database for station/object WA6TJQ. If no packets are shown the sender has not sent any weather packets the latest 10 day(s).
| Time | Temp. | Humidity | Pressure | Rain* | Wind** | Luminosity | Snow |
|---|---|---|---|---|---|---|---|
| 1777788229 | 12.22° C | 44% | 1010.1 hPa | 0 mm | - | - | - |
| 1777787929 | 12.22° C | 42% | 1010.2 hPa | 0 mm | - | - | - |
| 1777787629 | 12.22° C | 41% | 1010.2 hPa | 0 mm | - | - | - |
| 1777787329 | 12.22° C | 42% | 1010.1 hPa | 0 mm | - | - | - |
| 1777787029 | 12.22° C | 41% | 1010.4 hPa | 0 mm | - | - | - |
| 1777786729 | 12.22° C | 40% | 1010.3 hPa | 0 mm | - | - | - |
| 1777786429 | 12.22° C | 38% | 1010.2 hPa | 0 mm | - | - | - |
| 1777786129 | 12.22° C | 38% | 1010.2 hPa | 0 mm | - | - | - |
| 1777785829 | 12.22° C | 37% | 1010.3 hPa | 0 mm | - | - | - |
| 1777785529 | 12.22° C | 40% | 1010.2 hPa | 0 mm | - | - | - |
| 1777785228 | 12.22° C | 39% | 1010.3 hPa | 0 mm | - | - | - |
| 1777784929 | 12.22° C | 39% | 1010.4 hPa | 0 mm | - | - | - |
| 1777784629 | 12.22° C | 37% | 1010.1 hPa | 0 mm | - | - | - |
| 1777784328 | 12.22° C | 38% | 1010.3 hPa | 0 mm | - | - | - |
| 1777784028 | 12.22° C | 36% | 1010.2 hPa | 0 mm | - | - | - |
| 1777783728 | 12.22° C | 39% | 1010.3 hPa | 0 mm | - | - | - |
| 1777783428 | 12.22° C | 38% | 1010.3 hPa | 0 mm | - | - | - |
| 1777783128 | 12.22° C | 36% | 1010.1 hPa | 0 mm | - | - | - |
| 1777782828 | 12.22° C | 36% | 1010.1 hPa | 0 mm | - | - | - |
| 1777782528 | 12.22° C | 35% | 1010 hPa | 0 mm | - | - | - |
| 1777782228 | 12.22° C | 35% | 1010.1 hPa | 0 mm | - | - | - |
| 1777781928 | 12.22° C | 39% | 1010.1 hPa | 0 mm | - | - | - |
| 1777781628 | 12.22° C | 38% | 1010 hPa | 0 mm | - | - | - |
| 1777781328 | 12.22° C | 37% | 1010 hPa | 0 mm | - | - | - |
| 1777781028 | 12.22° C | 37% | 1009.9 hPa | 0 mm | - | - | - |
* Rain latest hour (hover to see other rain measurements)
** Current wind speed in m/s (hover to see current wind gust speed)